FENGYUN 1C DEB, 29871

Orbit data source: Space-Track

FENGYUN 1C DEB, 29871 is space debris in SSO originally from a launch on Mon, 10 May 1999 UTC launched from the Taiyaun Space Center, China (TSC). Fengyun 1C debris stems from the Chinese weather satellite Fengyun-1C, which was intentionally destroyed by a Chinese anti-satellite missile in 2007. This event dramatically increased the amount of space debris, with thousands of trackable fragments posing hazards to satellites and human spaceflight. The Fengyun 1C debris cloud has become a focal point in discussions about space sustainability and the need for international regulations to prevent the creation of new debris.

Loading next visibility...
Identifier
29871, 1999-025FR
Orbit
SSO
Country
Flag of CNCN / PRC
Related business
Manufacturer
Unknown
Mission
Spacecraft
Bus & Motor
Unknown
Mass
Unknown
Launch date (UTC)
1999-05-10 (26 years ago)
Launch vehicle
Unknown
Launch site
Taiyaun Space Center, China (TSC)
Object type
Payload
Rocket body
Debris
Shape & HBR
Unknown shape, 0.1 m
Radar Cross Section
Small (<0.1 m²)

Expand to show TLE details & history
Last TLE update: 22 hours ago

TLE from 22 hours ago
0 FENGYUN 1C DEB
1 29871U 99025FR  25304.81648250  .00004155  00000-0  12496-2 0  9999
2 29871  98.9663 255.7952 0056791 232.6598 147.3908 14.42275470980979
Epoch: 2025-10-31T19:35Z
TLE epoch observation values (Epoch: 2025-10-31T19:35:44.088Z)
Latitude
20.14354°
Longitude
-81.79424°
Altitude
787.699 km
Speed
7.444 km/s
True Right ascension
16h 49m 58s
True Declination
20° 01' 59"
Sunlit
Object was in daylight at epoch
Visualization orbit readout
Latitude
Unknown
Longitude
Unknown
Altitude
Unknown
Speed
Unknown
Apparent Right ascension
Unknown
Apparent Declination
Unknown
Sunlit
N/A
Visualization observer readout
Local Sidereal Time
13:29:30
Azimuth
Unknown
Elevation
Unknown
Doppler factor
Unknown
Orbital elements
Apogee altitude
788.602 km
Perigee altitude
707.661 km
Semi-major axis
7,126.269 km
Eccentricity
0.00568
Inclination
98.9663°
RAAN
255.7952°
Arg. of periapsis
232.6598°
True anomaly
147.73942°
Mean anomaly
147.3908°
Eccentric anomaly
147.56532°
Mean motion
3.60786 °/min
Orbital period
99.78 mins
BSTAR
0.0012496
Loading maneuver chart data...
Computing Atmospheric mass density...

Documentation

Showing up to 5 results
|